Location: Lane
(33.5226°N, 79.8788°W)
Time: 16:46:45
(UTC+00:00)

Transit 2A - Pass Details

Date: 05 October 2022
Orbit: 598 x 959 km, 66.7° (Epoch: 06 December)

Event Time Altitude Azimuth Distance (km) Brightness Sun altitude
Rises 13:12:43 0° 329° (NNW) 3,027 8.6 22.6°
Reaches altitude 10° 13:14:57 10° 327° (NNW) 2,158 7.9 23.0°
Maximum altitude 13:19:48 63° 247° (WSW) 832 6.4 23.9°
Drops below altitude 10° 13:25:11 10° 166° (SSE) 2,382 9.2 24.9°
Sets 13:27:45 0° 164° (SSE) 3,370 9.9 25.4°
